Location: Unspecified
(64.9000°N, 0.0000°E)
Time: 08:26:31
(UTC+00:00)

Transit 2A Rocket - Pass Details

Date: 22 June 2019
Orbit: 588 x 915 km, 66.7° (Epoch: 23 July)

Event Time Altitude Azimuth Distance (km) Brightness Sun altitude
Rises 10:32:38 0° 196° (SSW) 3,539 8.9 46.1°
Reaches altitude 10° 10:35:23 10° 188° (S) 2,586 8.4 46.2°
Maximum altitude 10:40:44 34° 126° (SE) 1,410 7.9 46.5°
Drops below altitude 10° 10:45:50 10° 63° (ENE) 2,466 7.7 46.7°
Sets 10:48:24 0° 55° (NE) 3,354 8.2 46.8°
